[[{"header":{"parameterUnit":"m.s-1","parameterCategory":1,"la1":30.2991,"la2":30.254,"lo1":-89.0895,"lo2":-89.0444,"dy":0.0017,"dx":0.0017,"nx":28,"ny":28,"refTime":"2023-10-28T03:00:00:Z","depth":0,"parameterNumber":2,"parameterNumberName":"U-component_of_WINDS"},"data":[0,0,0,0,0,0,0,0,0,0,0,0,0,0,0,0,0,0,0,0,0,0,0,0,0,0,0,0,0,0,0,0,0,0,0,0,0,0,0,0,0,0,0,0,0,0,0,0,0,0,0,0,0,0,0,0,0,0,-2.6384,-2.6385,0,-2.6424,-2.6425,-2.6425,-2.6387,-2.6385,-2.6384,-2.6382,-2.642,-2.6422,-2.6424,0,0,0,0,0,0,0,0,0,0,0,0,0,-2.6272,-2.6274,-2.6384,-2.6385,-2.6385,-2.6424,-2.6425,-2.6425,-2.6387,-2.6385,-2.6383,-2.6382,-2.6419,-2.6422,-2.6425,0,0,0,0,0,0,0,0,0,0,0,0,0,-2.6317,-2.6275,-2.6384,-2.6371,-2.637,-2.6424,-2.6425,-2.6425,-2.6387,-2.6385,-2.6383,-2.6381,-2.6418,-2.6422,-2.6425,-2.6493,0,0,-2.6436,-2.6438,0,0,0,0,0,0,0,0,-2.6315,-2.6321,-2.6372,-2.6372,-2.6371,-2.6398,-2.6399,-2.6448,-2.6388,-2.6381,-2.6382,-2.638,-2.6414,-2.6418,-2.643,-2.6495,-2.6497,-2.6436,-2.6439,-2.644,-2.6441,0,0,0,0,0,0,0,-2.6312,-2.632,-2.64,-2.6373,-2.6372,-2.6362,-2.6366,-2.6408,-2.641,-2.6381,-2.6378,-2.6384,-2.6413,-2.6427,-2.6431,-2.6497,-2.6436,-2.644,-2.6442,-2.6443,-2.6621,-2.6623,0,0,0,0,0,0,-2.631,-2.6317,-2.6399,-2.6401,-2.6337,-2.6366,-2.637,-2.6392,-2.6409,-2.641,-2.6386,-2.6382,-2.6422,-2.6427,-2.6432,-2.6513,-2.644,-2.6444,-2.6446,-2.6618,-2.6621,-2.6624,0,0,0,0,0,0,-2.6308,-2.6318,-2.6397,-2.6359,-2.6368,-2.6371,-2.6395,-2.6394,-2.6407,-2.6413,-2.6412,-2.64,-2.642,-2.6427,-2.6479,-2.6514,-2.6445,-2.6449,-2.6615,-2.6619,-2.6623,-2.6676,0,0,0,0,0,0,-2.6305,-2.6318,-2.6344,-2.6359,-2.637,-2.6444,-2.6397,-2.6396,-2.6414,-2.6409,-2.6426,-2.6426,-2.6419,-2.6474,-2.6482,-2.6518,-2.6451,-2.6612,-2.6617,-2.6621,-2.6671,-2.6681,-2.669,0,0,0,0,0,-2.6301,-2.6356,-2.6345,-2.6355,-2.6403,-2.6446,-2.6452,-2.6444,-2.6417,-2.6443,-2.6447,-2.6425,-2.6509,-2.6479,-2.6489,-2.6526,-2.661,-2.6616,-2.6621,-2.6667,-2.6679,-2.6689,0,0,0,0,0,0,-2.6342,-2.6358,-2.6346,-2.6407,-2.6426,-2.6439,-2.6471,-2.6457,-2.6482,-2.6476,-2.6464,-2.6468,-2.6523,-2.653,-2.6496,-2.6593,-2.6555,-2.6563,-2.6586,-2.6598,-2.6607,-2.6604,-2.6454,0,0,0,0,0,-2.6359,-2.6393,-2.6404,-2.6458,-2.6468,-2.6468,-2.6487,-2.6479,-2.6497,-2.6504,-2.6512,-2.6529,-2.656,-2.658,-2.6608,-2.6673,-2.6675,-2.6703,-2.6712,-2.672,-2.6726,-2.6762,-2.6774,-2.6643,-2.6643,-2.6643,0,0,-2.6392,-2.6405,-2.6427,-2.6466,-2.6479,-2.6515,-2.6475,-2.6513,-2.6539,-2.651,-2.6559,-2.6566,-2.6585,-2.6644,-2.667,-2.6651,-2.6764,-2.6727,-2.6733,-2.6735,-2.6769,-2.6781,-2.6792,-2.6647,-2.6646,-2.6645,0,0,-2.6471,-2.6485,-2.6531,-2.6546,-2.6568,-2.6568,-2.658,-2.6596,-2.66,-2.665,-2.6629,-2.6659,-2.6712,-2.6726,-2.674,-2.6829,-2.681,-2.6838,-2.6886,-2.6921,-2.6931,-2.694,-2.6972,-2.6983,-2.6845,-2.6845,-2.6845,0,-2.6509,-2.6563,-2.6556,-2.6597,-2.6615,-2.6593,-2.6639,-2.6653,-2.6683,-2.6695,-2.6674,-2.6741,-2.6752,-2.6814,-2.6836,-2.6849,-2.6861,-2.6835,-2.6931,-2.694,-2.6948,-2.6978,-2.6989,-2.6849,-2.6848,-2.6848,-2.6848,0,-2.6609,-2.6647,-2.6681,-2.6712,-2.6734,-2.6778,-2.6777,-2.68,-2.6792,-2.6795,-2.6847,-2.686,-2.6891,-2.6905,-2.6897,-2.6967,-2.6955,-2.6933,-2.6894,-2.6964,-2.6991,-2.7003,-2.6853,-2.6852,-2.6851,-2.685,0,0,-2.6711,-2.6741,-2.6753,-2.6768,-2.6792,-2.682,-2.6863,-2.6895,-2.6915,-2.6937,-2.6972,-2.7019,-2.6999,-2.7015,-2.7009,-2.7039,-2.7109,-2.7014,-2.7014,-2.703,-2.7187,-2.7202,-2.7215,-2.7097,-2.71,-2.7101,-2.7185,0,-2.6791,-2.6867,-2.6863,-2.6934,-2.6968,-2.6949,-2.6987,-2.7005,-2.701,-2.7039,-2.7044,-2.7077,-2.7049,-2.7059,-2.7089,-2.7094,-2.714,-2.7088,-2.7129,-2.713,-2.7123,-2.723,-2.7246,-2.7324,-2.7196,-2.7198,-2.7199,0,-2.6893,-2.692,-2.6995,-2.7015,-2.703,-2.7063,-2.7093,-2.7122,-2.7143,-2.7145,-2.7165,-2.7154,-2.7197,-2.7159,-2.7218,-2.7183,-2.72,-2.7206,-2.7209,-2.7211,-2.7168,-2.7234,-2.7349,-2.736,-2.7216,-2.7214,-2.7213,0,-2.696,-2.7015,-2.7067,-2.708,-2.7105,-2.713,-2.7141,-2.716,-2.718,-2.7206,-2.7219,-2.725,-2.7266,-2.729,-2.7287,-2.726,-2.7348,-2.731,-2.7349,-2.7349,-2.7367,-2.7365,-2.7485,-2.738,-2.738,-2.738,-2.738,0,-2.7048,-2.7094,-2.7098,-2.713,-2.7181,-2.7177,-2.7228,-2.7237,-2.7255,-2.7287,-2.7273,-2.7304,-2.7299,-2.7331,-2.7329,-2.7379,-2.7386,-2.7388,-2.7386,-2.7388,-2.7388,-2.7398,-2.7392,-2.7383,-2.7382,-2.7382,-2.7381,0,-2.713,-2.7134,-2.719,-2.721,-2.7217,-2.7254,-2.7271,-2.7301,-2.7306,-2.7348,-2.7357,-2.7364,-2.74,-2.7401,-2.7442,-2.7441,-2.7501,-2.7494,-2.7495,-2.7493,-2.7532,-2.7528,-2.7661,-2.7678,-2.7564,-2.7565,-2.7566,0,-2.7185,-2.722,-2.7245,-2.7267,-2.7281,-2.7316,-2.7337,-2.7336,-2.7358,-2.7386,-2.7413,-2.7448,-2.7476,-2.7535,-2.7543,-2.7575,-2.7568,-2.7612,-2.7572,-2.7573,-2.7567,-2.7565,-2.7568,-2.7619,-2.7621,-2.7622,-2.7623,0,-2.7282,-2.7283,-2.7315,-2.7349,-2.7375,-2.7401,-2.7424,-2.7443,-2.7444,-2.747,-2.7508,-2.753,-2.7573,-2.7608,-2.764,-2.765,-2.7637,-2.7636,-2.7646,-2.7648,-2.7646,-2.7647,-2.7515,-2.7632,-2.7631,-2.763,-2.763,-2.7629,-2.7351,-2.7382,-2.7406,-2.7442,-2.7461,-2.7484,-2.7514,-2.7524,-2.7555,-2.7591,-2.7589,-2.7631,-2.7652,-2.7693,-2.7707,-2.774,-2.7724,-2.7739,-2.7743,-2.7747,-2.7751,-2.7643,-2.7745,-2.7745,-2.7745,-2.7745,-2.7744,0,-2.7447,-2.7462,-2.7496,-2.7531,-2.756,-2.7547,-2.7574,-2.7598,-2.7636,-2.7658,-2.7687,-2.7731,-2.7765,-2.7778,-2.7811,-2.7835,-2.783,-2.7844,-2.7841,-2.7844,-2.7763,-2.775,-2.7848,-2.7848,-2.7847,-2.7847,-2.7847,-2.7847,-2.75,-2.7552,-2.7557,-2.7619,-2.7633,-2.7675,-2.7691,-2.7713,-2.7731,-2.7781,-2.7811,-2.7819,-2.7837,-2.7873,-2.7904,-2.7907,-2.7919,-2.7936,-2.7936,-2.786,-2.7849,-2.7839,-2.7827,-2.7939,-2.7939,-2.8014,-2.8014,-2.8015]},{"header":{"parameterUnit":"m.s-1","parameterCategory":1,"la1":30.2991,"la2":30.254,"lo1":-89.0895,"lo2":-89.0444,"dy":0.0017,"dx":0.0017,"nx":28,"ny":28,"refTime":"2023-10-28T03:00:00:Z","depth":0,"parameterNumber":3,"parameterNumberName":"V-component_of_WINDS"},"data":[0,0,0,0,0,0,0,0,0,0,0,0,0,0,0,0,0,0,0,0,0,0,0,0,0,0,0,0,0,0,0,0,0,0,0,0,0,0,0,0,0,0,0,0,0,0,0,0,0,0,0,0,0,0,0,0,0,0,1.1958,1.1959,0,1.1991,1.1991,1.1991,1.1962,1.1961,1.196,1.1959,1.1989,1.1991,1.1993,0,0,0,0,0,0,0,0,0,0,0,0,0,1.187,1.1872,1.1958,1.1959,1.1959,1.1991,1.1991,1.1992,1.1962,1.1961,1.1959,1.1958,1.1988,1.1991,1.1993,0,0,0,0,0,0,0,0,0,0,0,0,0,1.1906,1.1872,1.1958,1.1948,1.1948,1.1991,1.1991,1.1992,1.1963,1.1961,1.1959,1.1957,1.1988,1.199,1.1993,1.2046,0,0,1.2002,1.2003,0,0,0,0,0,0,0,0,1.1904,1.1909,1.1949,1.1949,1.1949,1.1971,1.1971,1.201,1.1963,1.1957,1.1958,1.1956,1.1984,1.1987,1.1997,1.2048,1.2049,1.2002,1.2004,1.2005,1.2006,0,0,0,0,0,0,0,1.1902,1.1908,1.1971,1.195,1.195,1.1942,1.1945,1.1978,1.198,1.1957,1.1955,1.196,1.1983,1.1994,1.1997,1.205,1.2002,1.2005,1.2006,1.2008,1.2149,1.2151,0,0,0,0,0,0,1.19,1.1906,1.197,1.1972,1.1922,1.1945,1.1949,1.1965,1.198,1.198,1.1961,1.1958,1.199,1.1994,1.1998,1.2064,1.2005,1.2008,1.201,1.2147,1.2149,1.2152,0,0,0,0,0,0,1.1899,1.1906,1.1969,1.1938,1.1946,1.1948,1.1967,1.1967,1.1978,1.1982,1.1982,1.1972,1.1989,1.1994,1.2036,1.2065,1.2009,1.2012,1.2145,1.2148,1.2151,1.2195,0,0,0,0,0,0,1.1896,1.1906,1.1926,1.1939,1.1948,1.2006,1.1969,1.1969,1.1983,1.1979,1.1993,1.1993,1.1988,1.2032,1.2039,1.2068,1.2014,1.2142,1.2146,1.215,1.2191,1.2199,1.2206,0,0,0,0,0,1.1893,1.1936,1.1927,1.1935,1.1973,1.2008,1.2012,1.2006,1.1985,1.2006,1.201,1.1993,1.206,1.2036,1.2044,1.2074,1.214,1.2145,1.2149,1.2188,1.2198,1.2206,0,0,0,0,0,0,1.1925,1.1938,1.1928,1.1977,1.1992,1.2003,1.2028,1.2017,1.2037,1.2033,1.2023,1.2027,1.2071,1.2076,1.2049,1.2128,1.2097,1.2103,1.2123,1.2133,1.214,1.2139,1.2016,0,0,0,0,0,1.1938,1.1965,1.1974,1.2017,1.2025,1.2026,1.204,1.2035,1.2049,1.2055,1.2061,1.2075,1.21,1.2116,1.2139,1.2191,1.2195,1.2216,1.2224,1.223,1.2236,1.2267,1.2277,1.2167,1.2167,1.2167,0,0,1.1964,1.1975,1.1992,1.2023,1.2034,1.2063,1.2031,1.2062,1.2083,1.2059,1.21,1.2105,1.212,1.2168,1.2189,1.2174,1.2268,1.2236,1.2241,1.2244,1.2273,1.2283,1.2293,1.217,1.2169,1.2169,0,0,1.2028,1.2038,1.2076,1.2088,1.2105,1.2106,1.2115,1.2129,1.2132,1.2172,1.2156,1.2181,1.2223,1.2235,1.2247,1.2319,1.2305,1.2326,1.2367,1.2397,1.2406,1.2413,1.2441,1.2451,1.2332,1.2332,1.2332,0,1.2059,1.2102,1.2096,1.213,1.2145,1.2126,1.2164,1.2176,1.22,1.221,1.2193,1.2247,1.2256,1.2308,1.2326,1.2335,1.2346,1.2325,1.2405,1.2413,1.242,1.2446,1.2457,1.2334,1.2334,1.2334,1.2334,0,1.2141,1.2171,1.2199,1.2225,1.2243,1.2279,1.2278,1.2297,1.229,1.2293,1.2336,1.2346,1.2372,1.2383,1.2375,1.2435,1.2425,1.2406,1.2375,1.2433,1.2458,1.2468,1.2338,1.2337,1.2337,1.2336,0,0,1.2225,1.2249,1.226,1.2272,1.2291,1.2315,1.235,1.2377,1.2394,1.2411,1.2442,1.2479,1.2463,1.2476,1.247,1.2497,1.2556,1.2475,1.2475,1.2492,1.2625,1.2641,1.2653,1.2546,1.2548,1.255,1.2625,0,1.2292,1.2355,1.2352,1.2411,1.2441,1.2424,1.2455,1.247,1.2474,1.2499,1.2502,1.253,1.2505,1.2514,1.2539,1.2544,1.2583,1.2538,1.2576,1.2577,1.2575,1.2665,1.2682,1.2752,1.2634,1.2636,1.2637,0,1.2378,1.2401,1.2464,1.2482,1.2494,1.2522,1.2548,1.2572,1.2589,1.259,1.2607,1.2597,1.2634,1.2601,1.2652,1.2621,1.2636,1.2641,1.2644,1.2649,1.2612,1.2675,1.2774,1.2786,1.2652,1.2651,1.2649,0,1.2437,1.2483,1.2528,1.2539,1.2559,1.258,1.2589,1.2605,1.2622,1.2644,1.2656,1.2681,1.2696,1.2716,1.2713,1.2689,1.2767,1.2732,1.277,1.277,1.2788,1.2787,1.2893,1.2794,1.2794,1.2794,1.2793,0,1.2513,1.2553,1.2555,1.2583,1.2628,1.2623,1.2667,1.2674,1.2689,1.2718,1.2703,1.273,1.2725,1.2752,1.275,1.2795,1.28,1.2803,1.2803,1.2806,1.2806,1.2817,1.2813,1.2796,1.2796,1.2795,1.2795,0,1.2587,1.259,1.2638,1.2655,1.266,1.2692,1.2706,1.2733,1.2736,1.2773,1.2781,1.2786,1.2817,1.2817,1.2852,1.2851,1.2907,1.2899,1.2902,1.2901,1.2939,1.2937,1.3058,1.3075,1.2962,1.2963,1.2964,0,1.2637,1.2668,1.2689,1.2708,1.2719,1.275,1.2768,1.2765,1.2785,1.2808,1.2832,1.2863,1.2888,1.294,1.2946,1.2974,1.2968,1.3009,1.2972,1.2976,1.2972,1.2972,1.2976,1.3017,1.3018,1.3019,1.302,0,1.2726,1.2726,1.2754,1.2783,1.2806,1.2828,1.2849,1.2865,1.2864,1.2887,1.2921,1.294,1.2978,1.3009,1.3036,1.3046,1.3034,1.3031,1.3042,1.3047,1.3048,1.3051,1.2924,1.3029,1.3028,1.3027,1.3027,1.3026,1.2791,1.2819,1.2839,1.2871,1.2887,1.2907,1.2934,1.2941,1.2969,1.3001,1.2997,1.3035,1.3053,1.3089,1.3101,1.313,1.3116,1.313,1.3135,1.3139,1.3145,1.3042,1.3135,1.3134,1.3134,1.3134,1.3134,0,1.2882,1.2894,1.2924,1.2955,1.298,1.2967,1.299,1.3012,1.3046,1.3065,1.309,1.313,1.3161,1.317,1.3201,1.3223,1.3218,1.3231,1.3231,1.3234,1.3154,1.3144,1.3235,1.3235,1.3235,1.3235,1.3235,1.3235,1.2932,1.298,1.2983,1.3039,1.305,1.3089,1.3104,1.3122,1.3138,1.3183,1.321,1.3216,1.3232,1.3263,1.3292,1.3294,1.3307,1.3322,1.3323,1.3249,1.3239,1.3229,1.3219,1.3325,1.3325,1.34,1.34,1.3401]}]]